Date,TemperatureHighF,TemperatureAvgF,TemperatureLowF,DewpointHighF,DewpointAvgF,DewpointLowF,HumidityHigh,HumidityAvg,HumidityLow,PressureMaxIn,PressureMinIn,WindSpeedMaxMPH,WindSpeedAvgMPH,GustSpeedMaxMPH,PrecipitationSumIn
2013-5-9,69,65,61,64,62,60,97,89,78,29.93,29.80,11,5,21,1.39
2013-5-10,61,54,51,60,52,47,97,90,83,30.03,29.84,14,5,17,0.00
2013-5-11,59,53,44,48,31,-100,74,45,36,30.18,0.00,26,-6,39,0.00
2013-5-12,58,49,37,34,30,26,77,51,30,30.27,30.16,20,6,28,0.00
2013-5-13,72,57,37,45,37,29,91,52,27,30.23,29.98,12,4,19,0.00
2013-5-14,92,74,56,64,55,42,75,54,37,29.97,29.68,18,8,29,0.00
2013-5-15,83,75,66,59,55,48,70,52,30,29.86,29.74,19,7,25,0.00
2013-5-16,84,72,60,64,59,51,89,66,41,29.94,29.84,11,3,18,0.18
2013-5-17,82,72,60,64,60,56,88,68,46,29.98,29.90,15,4,15,0.00
2013-5-18,83,73,63,67,64,62,96,74,52,30.01,29.88,14,5,17,0.00
2013-5-19,89,73,63,72,66,61,96,79,54,29.89,29.66,27,8,48,1.19
2013-5-20,82,70,62,66,62,58,91,75,45,29.79,29.57,23,9,35,0.26
2013-5-21,78,69,61,63,60,58,95,75,56,29.72,29.67,19,8,25,0.00
2013-5-22,69,63,59,60,56,54,92,79,62,29.83,29.66,18,7,22,0.00
2013-5-23,67,59,53,57,52,47,97,78,49,30.28,29.84,17,9,25,0.05
2013-5-24,70,57,46,49,43,37,97,62,32,30.46,30.29,13,5,16,0.00
2013-5-25,58,53,48,50,46,41,93,79,57,30.42,30.24,18,8,29,0.85
2013-5-26,64,57,51,61,55,48,98,91,81,30.26,30.00,19,8,26,3.90
2013-5-27,73,65,59,68,63,58,99,93,80,30.02,29.79,16,6,25,0.64
2013-5-28,77,70,63,71,67,61,98,89,80,29.91,29.68,25,7,34,1.72
2013-5-29,86,74,61,72,66,61,100,79,56,29.98,29.77,26,7,49,0.98
2013-5-30,84,72,62,70,65,61,96,81,57,29.84,29.69,24,10,52,0.87
2013-5-31,74,67,62,69,64,58,97,89,76,29.86,29.70,21,6,34,0.55
2013-6-1,75,67,62,67,62,58,97,83,60,29.84,29.68,21,8,27,0.00
2013-6-2,63,59,53,59,53,48,93,80,67,30.07,29.84,19,7,26,0.00
2013-6-3,69,60,51,53,50,46,96,71,48,30.16,30.03,11,3,13,0.00
2013-6-4,74,65,53,58,53,49,87,67,50,30.16,30.02,16,5,27,0.00
2013-6-5,77,67,58,63,59,56,95,78,52,30.07,29.90,11,4,11,0.06
2013-6-6,72,65,58,60,59,56,97,82,56,29.94,29.88,10,3,14,0.01
2013-6-7,73,64,57,58,55,53,96,76,51,29.99,29.92,11,4,13,0.00
2013-6-8,78,66,56,57,55,53,97,71,44,29.98,29.90,9,3,12,0.00
2013-6-9,74,68,63,65,61,56,94,77,63,29.93,29.77,14,6,19,0.06
2013-6-10,78,68,61,64,62,61,99,82,58,29.90,29.76,13,3,17,0.02
2013-6-11,90,75,60,73,66,58,97,75,53,29.95,29.80,16,4,22,0.06
2013-6-12,86,77,74,72,70,68,85,78,62,29.88,29.75,13,3,22,0.00
2013-6-15,82,74,67,72,68,65,94,83,72,29.97,29.84,21,6,34,0.52
2013-6-16,84,73,66,72,67,63,97,83,62,29.93,29.87,8,3,11,0.00
2013-6-17,85,76,64,70,66,61,99,73,44,29.92,29.84,11,3,19,0.12
2013-6-18,82,73,65,65,62,59,94,70,48,29.99,29.84,13,6,15,0.00
2013-6-19,88,73,58,63,57,54,89,60,34,30.07,29.98,9,3,11,0.00
2013-6-20,91,79,64,68,64,59,84,62,41,30.06,29.96,13,6,20,0.00
2013-6-21,88,80,74,74,70,66,83,72,56,30.01,29.86,20,8,32,0.03
2013-6-22,95,83,74,75,72,66,86,71,47,29.98,29.85,17,7,23,0.00
2013-6-23,87,75,69,73,67,63,87,76,60,29.96,29.81,16,5,30,0.65
2013-6-24,86,73,66,75,68,65,98,85,60,30.03,29.81,24,6,53,0.50
2013-6-25,89,79,70,76,72,68,95,81,61,29.86,29.73,21,6,29,0.02
2013-6-26,85,78,66,77,74,65,98,87,73,29.78,29.68,26,3,30,0.69
2013-6-27,87,79,71,75,70,67,96,77,55,29.83,29.74,21,6,23,0.00
2013-6-28,84,76,67,66,62,56,87,63,40,29.77,29.64,24,7,36,0.00
2013-6-29,75,68,64,68,64,61,94,87,73,29.77,29.62,16,5,22,0.72
2013-6-30,79,69,62,64,61,58,96,77,54,29.97,29.77,17,7,21,0.00
2013-7-1,79,68,57,60,55,52,86,64,39,30.04,29.97,21,7,22,0.00
2013-7-2,79,69,58,59,56,53,85,64,42,30.06,29.98,13,6,16,0.00
2013-7-3,81,69,58,61,56,49,93,67,37,30.05,29.98,6,1,9,0.00
2013-7-4,87,74,62,64,60,54,93,64,37,30.04,29.95,8,3,12,0.00
2013-7-5,87,77,63,66,63,60,91,64,42,30.02,29.93,10,4,17,0.00
2013-7-6,89,77,66,69,66,63,93,71,44,29.98,29.89,9,3,15,0.00
2013-7-7,90,80,68,73,69,64,88,71,53,29.94,29.88,10,4,15,0.00
2013-7-8,86,79,73,75,72,68,91,79,67,29.96,29.90,21,6,28,0.19
2013-7-9,90,82,78,78,75,72,88,79,67,29.94,29.82,10,4,18,0.00
2013-7-10,85,79,64,75,67,60,93,69,48,29.98,29.80,13,4,18,0.00
2013-7-11,82,71,59,64,60,55,96,71,41,30.07,29.98,10,3,12,0.00
2013-7-12,85,72,58,61,58,54,91,63,37,30.11,30.02,9,3,13,0.00
2013-7-13,84,71,57,65,61,55,94,71,47,30.10,30.01,9,3,13,0.00
2013-7-15,90,85,77,76,74,71,90,69,56,30.19,30.12,8,4,13,0.00
2013-7-16,92,83,72,76,74,71,98,77,56,30.24,30.17,9,2,11,0.00
2013-7-17,95,84,71,78,74,70,96,73,46,30.27,30.13,5,1,8,0.00
2013-7-18,95,85,74,77,74,72,93,72,49,30.15,29.92,7,3,13,0.00
2013-7-19,94,85,76,75,72,69,88,68,46,29.92,29.75,18,6,23,0.00
2013-7-20,88,79,69,73,67,63,89,69,44,29.88,29.79,10,3,12,0.00
2013-7-21,82,73,66,74,69,64,99,87,69,29.88,29.79,11,3,14,0.22
2013-7-22,88,76,65,76,70,64,100,86,65,29.84,29.71,13,3,29,0.01
2013-7-23,77,71,63,68,64,60,95,80,62,29.92,29.69,12,4,18,0.00
2013-7-24,77,67,57,61,58,56,98,75,51,30.03,29.91,10,3,12,0.00
2013-7-25,83,70,55,65,60,54,97,72,49,30.07,30.00,7,2,12,0.00
2013-7-26,79,70,60,73,64,57,98,82,53,30.00,29.86,12,3,22,0.96
2013-7-27,68,61,55,58,52,47,96,74,52,29.98,29.92,20,5,24,0.00
2013-7-28,72,62,51,57,53,48,94,74,55,30.04,29.93,17,4,22,0.00
2013-7-29,78,65,51,63,56,50,98,77,49,30.13,30.04,6,1,11,0.00
2013-7-30,69,66,64,68,65,60,100,94,76,30.09,29.98,11,4,13,1.23
2013-7-31,79,71,66,69,67,66,100,89,69,30.04,29.95,8,2,12,0.00
2013-8-1,84,74,62,68,65,61,100,76,47,30.03,29.89,9,2,12,0.01
2013-8-2,85,76,69,73,67,64,96,77,58,29.94,29.83,14,4,20,0.16
2013-8-3,81,72,63,66,62,56,94,73,45,30.10,29.93,13,3,14,0.00
2013-8-4,83,70,57,63,58,53,96,69,40,30.16,30.05,7,2,10,0.00
2013-8-5,80,69,59,72,65,57,96,86,75,30.06,29.82,11,3,13,0.00
2013-8-6,90,77,67,77,72,66,100,86,61,29.86,29.75,11,3,15,0.00
2013-8-7,87,78,68,76,71,65,97,82,55,29.91,29.74,9,3,13,0.00
2013-8-8,80,71,61,70,65,60,98,83,62,29.96,29.90,9,2,11,0.00
2013-8-9,82,72,62,70,66,61,99,83,59,30.05,29.95,8,1,12,0.02
2013-8-10,80,70,59,66,61,55,99,75,45,30.14,30.05,12,2,17,0.01
2013-8-11,84,72,58,68,63,57,97,75,54,30.11,29.99,10,3,13,0.00
2013-8-12,82,73,63,72,66,60,90,80,62,30.00,29.87,8,2,11,0.01
2013-8-13,74,65,56,61,57,52,97,78,51,30.14,29.94,14,4,16,0.00
2013-8-14,75,61,48,61,53,47,97,77,45,30.21,30.11,8,1,9,0.00
2013-8-15,75,64,55,60,56,53,95,76,50,30.15,30.07,10,1,11,0.00
2013-8-16,82,66,52,61,56,51,98,74,43,30.16,30.11,8,2,10,0.00
2013-8-17,79,67,53,63,58,52,98,75,49,30.18,30.11,10,2,14,0.00
2013-8-18,83,69,54,65,60,53,97,75,51,30.17,30.06,9,2,11,0.00
2013-8-19,85,72,57,69,64,56,97,77,54,30.09,29.99,9,2,14,0.00
2013-8-20,88,77,66,70,67,63,91,72,48,30.05,29.96,9,4,15,0.00
2013-8-21,89,78,67,71,68,65,93,74,50,30.03,29.94,12,4,16,0.00
2013-8-22,81,77,69,73,71,67,95,83,73,30.05,29.98,19,5,20,0.00
2013-8-23,85,74,62,71,67,62,99,82,60,30.10,30.03,10,3,13,0.00
2013-8-24,88,76,63,73,68,61,93,77,60,30.17,30.08,9,5,14,0.00
2013-8-25,91,79,68,72,68,65,91,72,47,30.20,30.09,10,4,15,0.00
2013-8-26,93,80,68,76,70,65,90,72,53,30.12,29.95,10,3,12,0.00
2013-8-27,94,82,72,75,71,66,93,71,47,29.97,29.84,15,4,21,0.00
2013-8-28,96,84,76,77,71,66,94,68,49,29.94,29.87,13,4,19,0.00
2013-8-29,90,81,72,79,75,71,98,84,67,30.00,29.90,10,4,12,0.00
2013-8-30,98,85,75,79,76,72,98,76,47,29.91,29.72,9,3,11,0.00
2013-8-31,88,79,70,76,72,68,95,80,64,29.76,29.70,11,3,17,0.00
2013-9-1,88,76,64,75,68,61,100,78,53,29.84,29.72,14,4,19,0.01
2013-9-2,79,68,59,64,59,54,96,74,43,29.98,29.84,8,3,14,0.00
2013-9-3,80,64,50,59,56,50,99,77,46,30.08,29.98,9,1,11,0.00
2013-9-4,86,70,50,65,58,49,96,70,41,30.12,30.03,7,1,7,0.00
2013-9-5,90,76,60,70,64,58,92,69,45,30.15,30.08,7,1,10,0.00
2013-9-6,89,75,61,67,64,59,93,71,41,30.13,29.96,9,4,14,0.00
2013-9-7,93,78,64,72,67,60,87,70,48,29.97,29.81,9,3,16,0.00
2013-9-8,84,78,73,74,71,68,91,80,69,29.90,29.80,12,5,20,0.01
2013-9-9,99,82,71,73,71,68,97,74,37,29.84,29.77,9,4,19,0.00
2013-9-10,95,88,78,70,66,64,68,50,36,29.97,29.89,16,6,22,0.00
2013-9-11,89,78,72,71,68,65,92,73,51,30.02,29.96,10,3,18,0.01
2013-9-12,81,72,60,71,58,47,97,66,31,30.08,29.99,16,4,21,0.02
2013-9-13,71,60,51,51,45,33,89,61,25,30.18,30.07,13,4,16,0.00
2013-9-14,74,60,44,49,45,41,92,62,36,30.17,29.98,8,3,15,0.00
2013-9-15,67,62,58,63,55,45,96,79,60,30.16,29.93,11,5,16,0.54
2013-9-16,69,60,53,56,54,50,98,81,57,30.32,30.17,16,6,20,0.00
2013-9-17,69,60,50,62,56,48,95,85,72,30.27,30.04,10,4,13,0.00
2013-9-18,88,74,62,72,66,59,92,78,56,30.04,29.82,10,5,16,0.04
2013-9-19,92,78,67,72,69,64,98,75,43,29.86,29.70,18,6,31,0.93
2013-9-20,70,65,55,67,58,51,99,82,53,29.89,29.77,15,5,22,0.03
2013-9-21,70,55,48,52,50,47,96,84,48,29.94,29.88,8,2,13,0.00
2013-9-22,72,58,46,54,48,-100,98,75,47,30.03,29.92,9,-8,12,0.00
2013-9-23,74,60,47,55,50,45,94,73,47,30.03,29.91,13,5,18,0.00
2013-9-24,76,62,50,60,54,47,93,75,56,29.94,29.81,13,5,16,0.00
2013-9-25,79,66,52,60,56,51,95,73,51,29.90,29.84,11,4,17,0.00
2013-9-26,83,68,55,64,58,52,90,72,49,29.98,29.88,11,5,18,0.00
2013-9-27,83,70,57,65,57,53,86,66,41,30.06,29.94,13,6,21,0.00
2013-9-28,80,67,54,68,60,54,98,80,59,30.00,29.85,17,7,28,0.13
2013-9-29,73,58,45,56,48,42,100,74,33,30.07,29.96,11,2,12,0.01
2013-9-30,79,62,46,58,51,44,95,70,40,29.96,29.82,13,4,18,0.00
2013-10-1,82,70,58,68,62,57,99,80,51,29.93,29.84,17,5,21,0.00
2013-10-2,85,71,58,67,63,57,100,79,49,30.01,29.89,9,3,15,0.00
2013-10-3,79,71,66,71,67,64,98,88,69,29.87,29.75,13,4,18,0.13
2013-10-4,86,75,67,72,68,65,99,80,54,29.89,29.80,12,5,20,0.00
2013-10-5,74,67,51,71,62,47,96,85,69,29.84,29.77,16,5,19,0.01
2013-10-6,51,46,41,47,38,-100,96,82,66,29.84,29.74,16,-26,18,0.05
2013-10-7,72,57,46,49,47,45,97,72,39,30.07,29.84,15,5,18,0.00
2013-10-8,78,62,45,51,47,43,93,63,33,30.14,30.05,12,3,16,0.00
2013-10-9,75,60,46,52,47,43,95,67,34,30.16,30.06,8,3,13,0.00
2013-10-10,78,61,45,57,51,43,93,71,43,30.12,29.96,8,3,17,0.00
2013-10-11,78,66,53,61,56,52,97,72,45,29.97,29.82,17,6,26,0.00
2013-10-12,71,65,59,60,52,37,92,67,29,30.04,29.85,15,6,22,0.00
2013-10-13,67,58,42,37,34,30,76,43,26,30.39,30.32,7,2,14,0.00
2013-10-14,65,53,39,45,39,33,86,61,41,30.37,30.01,17,6,21,0.00
2013-10-15,68,59,49,62,51,41,97,76,50,30.00,29.79,24,9,27,0.25
2013-10-16,52,47,49,45,35,-100,85,73,73,29.98,29.89,16,-56,21,0.00
2013-10-17,63,52,46,46,41,35,95,69,35,29.96,29.82,16,4,20,0.00
2013-10-18,52,47,43,43,39,37,94,76,58,30.01,29.86,14,6,19,0.00
2013-10-19,57,47,35,40,37,33,92,70,42,29.97,29.82,21,6,27,0.00
2013-10-20,68,54,40,47,42,38,92,68,42,29.86,29.70,18,4,24,0.00
2013-10-21,54,44,32,46,32,23,85,65,39,30.02,29.84,22,6,28,0.08
2013-10-22,42,37,31,40,35,27,96,91,84,30.02,29.83,15,4,19,0.18
2013-10-23,45,38,31,36,31,27,93,78,53,30.10,30.01,14,5,18,0.00
2013-10-24,40,37,32,36,27,23,90,68,54,30.38,30.09,12,4,19,0.00
2013-10-25,55,45,28,33,28,24,93,55,31,30.45,30.11,16,6,23,0.00
2013-10-26,54,47,36,37,30,25,73,55,34,30.13,29.95,18,6,27,0.00
2013-10-27,59,42,27,33,30,25,91,65,36,30.11,29.96,16,3,19,0.00
2013-10-28,62,45,31,40,33,27,88,67,36,30.28,30.03,16,4,17,0.00
2013-10-29,56,48,39,52,43,37,98,84,61,30.27,30.07,15,7,16,0.00
2013-10-30,64,56,52,63,56,52,100,99,98,30.06,29.81,23,6,26,2.19
2013-10-31,61,52,45,61,50,44,99,96,92,29.56,29.35,14,6,20,0.47
2013-11-1,51,46,43,46,43,40,99,89,78,29.79,29.49,17,6,21,0.00
2013-11-2,53,44,34,43,37,32,94,76,50,30.17,29.79,15,5,21,0.00
2013-11-3,56,43,29,38,33,27,98,72,47,30.26,30.11,17,5,21,0.00
2013-11-4,58,51,46,46,42,37,77,70,60,30.14,30.02,19,7,24,0.00
2013-11-5,56,54,52,55,51,46,97,90,77,30.19,29.86,16,7,27,0.11
2013-11-6,58,45,33,57,41,28,98,86,70,30.25,29.78,21,9,32,0.31
2013-11-7,46,37,29,37,31,27,92,80,63,30.31,30.25,18,5,22,0.00
2013-11-8,50,41,24,37,31,22,94,70,54,30.32,29.91,20,6,27,0.00
2013-11-9,60,52,44,40,38,35,77,60,44,30.21,29.90,24,12,33,0.00
2013-11-10,49,40,31,35,31,27,87,72,51,30.42,30.20,12,4,14,0.00
2013-11-11,51,40,23,39,32,19,97,75,60,30.59,30.10,18,7,21,0.03
2013-11-12,29,22,14,20,16,11,89,78,62,30.81,30.60,14,4,15,0.00
2013-11-13,44,32,18,22,18,15,89,60,33,30.67,30.18,13,5,26,0.00
2013-11-14,53,43,34,29,25,20,61,51,36,30.18,29.93,18,7,25,0.00
2013-11-15,52,44,38,38,32,24,82,64,53,29.98,29.84,15,5,18,0.00
2013-11-16,61,54,42,58,51,38,93,90,84,29.84,29.49,20,10,29,0.12
2013-11-17,70,56,45,65,53,40,96,87,73,29.89,29.18,29,10,63,0.19
2013-11-18,46,40,31,40,34,29,90,77,57,30.30,29.89,23,10,29,0.00
2013-11-19,48,36,26,31,28,24,96,75,50,30.35,30.19,13,5,17,0.00
2013-11-20,42,37,35,39,34,30,96,86,76,30.20,30.00,16,8,23,0.55
2013-11-21,47,43,38,44,41,37,97,91,87,30.28,30.05,9,3,14,0.06
2013-11-22,38,32,22,37,29,19,97,90,79,30.57,30.27,12,5,18,0.01
2013-11-23,23,20,11,19,13,6,89,75,57,30.79,30.55,16,6,21,0.00
2013-11-24,29,19,9,14,10,6,90,70,41,30.79,30.38,11,3,15,0.00
2013-11-25,35,30,24,27,21,14,79,69,61,30.38,30.12,18,7,25,0.00
2013-11-26,33,27,18,26,19,8,90,73,47,30.29,30.10,18,6,30,0.00
2013-11-27,27,19,11,12,10,7,84,67,48,30.38,30.22,11,3,16,0.00
2013-11-28,37,26,18,21,17,12,87,69,52,30.52,30.16,15,4,19,0.00
2013-11-29,39,26,12,25,19,10,93,74,51,30.62,30.35,14,4,18,0.00
2013-11-30,51,39,28,36,31,25,89,75,55,30.34,30.06,15,4,18,0.00
2013-12-1,47,37,30,35,31,28,96,80,60,30.13,29.94,7,1,8,0.00
2013-12-2,45,38,32,38,34,30,96,85,72,29.94,29.63,16,6,21,0.00
2013-12-3,51,43,34,48,42,34,100,97,89,29.66,29.55,14,5,19,0.00
2013-12-4,55,45,28,54,44,25,100,96,86,29.84,29.47,25,8,32,0.01
2013-12-5,28,20,17,23,14,10,86,75,67,30.36,29.85,31,13,31,0.00
2013-12-6,17,13,10,11,6,4,81,72,58,30.66,30.34,13,5,18,0.00
2013-12-7,18,10,3,7,3,-1,86,74,51,30.80,30.59,9,3,15,0.00
2013-12-8,22,19,14,21,16,6,96,85,70,30.58,30.03,18,8,23,0.00
2013-12-9,22,12,2,19,7,-2,90,80,64,30.31,30.05,18,8,27,0.00
2013-12-10,24,18,2,13,9,-2,84,68,55,30.32,30.20,34,7,41,0.00
2013-12-11,21,12,1,16,5,-6,89,74,61,30.66,30.26,17,6,22,0.00
2013-12-12,31,16,1,18,8,-4,86,72,58,30.62,30.23,25,4,25,0.00
2013-12-13,39,27,12,31,23,8,99,86,61,30.23,30.00,12,3,13,0.00
2013-12-14,30,26,16,30,24,12,99,93,85,30.13,29.94,21,9,25,0.00
2013-12-15,18,15,12,14,11,7,92,83,74,30.17,30.10,15,6,26,0.00
2013-12-16,24,18,10,22,16,7,96,90,84,30.16,30.03,11,4,12,0.00
2013-12-17,36,27,17,30,21,15,96,80,59,30.23,30.10,26,10,33,0.04
2013-12-18,44,32,16,34,23,11,82,70,54,30.21,29.83,17,5,22,0.00
2013-12-19,46,41,38,44,37,34,99,85,76,29.85,29.71,8,3,12,0.00
2013-12-20,44,32,27,43,31,26,99,98,95,29.87,29.70,12,5,16,0.07
2013-12-21,31,28,26,30,27,24,98,96,94,29.88,29.64,12,5,16,0.00
2013-12-22,31,25,17,30,23,14,99,93,86,30.28,29.66,17,8,26,0.00
2013-12-23,18,6,0,15,0,-7,87,78,67,30.60,30.27,19,10,24,0.00
2013-12-24,20,5,-8,14,-1,-13,83,76,69,30.65,30.34,12,4,19,0.00
2013-12-25,30,26,20,27,23,15,96,88,76,30.34,30.18,22,8,27,0.01
2013-12-26,38,29,17,32,24,15,94,83,73,30.29,30.14,24,4,26,0.06
2013-12-27,42,34,25,35,30,23,97,85,70,30.31,30.14,14,4,20,0.03
2013-12-28,50,41,35,39,34,31,89,77,62,30.13,29.82,14,5,17,0.00
2013-12-29,40,19,3,33,15,-4,94,84,73,30.33,29.81,26,12,32,0.00
2013-12-30,16,7,-1,13,2,-7,88,78,65,30.39,30.22,9,2,11,0.00
2013-12-31,20,14,6,15,10,4,91,87,81,30.41,30.23,17,7,21,0.00
2014-1-1,16,14,12,14,11,9,91,88,84,30.26,30.19,18,11,21,0.00
2014-1-2,14,9,-2,9,4,-5,86,81,75,30.52,30.24,16,4,18,0.00